Weather History for Luray Caverns AP, Luray, VA, VA

Change the Weather History Date:

Sunday, March 2, 2014

  Actual Average (KCHO) Record (KCHO)
Temperature  
Mean Temperature 48 °F 42 °F  
Max Temperature 60 °F 53 °F 78 °F (1972)
Min Temperature 33 °F 30 °F 10 °F (1980)
Degree Days  
Heating Degree Days 18 23  
Month to date heating degree days 47  
Since 1 July heating degree days 3459  
Cooling Degree Days 0 0  
Month to date cooling degree days 0  
Year to date cooling degree days 0  
Moisture  
Dew Point 34 °F    
Average Humidity 73    
Maximum Humidity 100    
Minimum Humidity 47    
Precipitation  
Precipitation 0.25 in 0.10 in 1.24 in (2002)
Month to date precipitation 0.19  
Year to date precipitation 5.66  
Sea Level Pressure  
Sea Level Pressure 30.02 in    
Wind  
Wind Speed 7 mph (WSW)    
Max Wind Speed 22 mph    
Max Gust Speed 29 mph    
Visibility 7 miles    
Events Rain    
T = Trace of Precipitation, MM = Missing Value Source: NWS Daily Summary

Daily Weather History Graph

Daily Weather History Graph

Search for Another Location

Airport:

Trip Planner

Search our weather history database for the weather conditions in past years. The results will help you decide how hot, cold, wet, or windy it might be!

Date:

Astronomy

Mar. 02, 2014 Rise Set
Actual Time 6:44 AM EST 6:07 PM EST
Civil Twilight 6:18 AM EST 6:34 PM EST
Nautical Twilight 5:47 AM EST 7:05 PM EST
Astronomical Twilight 5:16 AM EST 7:36 PM EST
Moon 7:16 AM EST (3/2) 8:00 PM EST (3/2)
Length of Visible Light 12h 16m
Length of Day
11h 23m
Waxing Crescent, 3% of the Moon is Illuminated
Mar 2
Waxing Crescent
Mar 8
First Quarter
Mar 16
Full
Mar 23
Last Quarter
Mar 30
New

Hourly Weather History & Observations

Time (EST) Temp. Windchill Dew Point Humidity Pressure Visibility Wind Dir Wind Speed Gust Speed Precip Events Conditions
12:15 AM 44.6 °F 40.2 °F 30.2 °F 57% 30.12 in 10.0 mi SSW 8.1 mph - N/A   Overcast
12:35 AM 44.6 °F 40.7 °F 28.4 °F 53% 30.11 in 10.0 mi SW 6.9 mph - N/A   Overcast
12:55 AM 44.6 °F 39.7 °F 28.4 °F 53% 30.11 in 10.0 mi SW 9.2 mph - N/A   Mostly Cloudy
1:15 AM 44.6 °F 40.7 °F 28.4 °F 53% 30.11 in 10.0 mi SSW 6.9 mph - N/A   Mostly Cloudy
1:35 AM 44.6 °F 40.7 °F 28.4 °F 53% 30.11 in 10.0 mi SW 6.9 mph - N/A   Mostly Cloudy
1:55 AM 44.6 °F 42.2 °F 28.4 °F 53% 30.10 in 10.0 mi SSW 4.6 mph - N/A   Overcast
2:15 AM 42.8 °F 39.3 °F 28.4 °F 57% 30.09 in 10.0 mi South 5.8 mph - N/A   Overcast
2:35 AM 42.8 °F 39.3 °F 28.4 °F 57% 30.09 in 10.0 mi SSW 5.8 mph - N/A   Overcast
2:55 AM 42.8 °F 40.1 °F 26.6 °F 53% 30.08 in 10.0 mi SSW 4.6 mph - N/A   Scattered Clouds
3:15 AM 41.0 °F 39.0 °F 26.6 °F 57% 30.07 in 10.0 mi SW 3.5 mph - N/A   Clear
3:35 AM 41.0 °F 38.0 °F 26.6 °F 57% 30.08 in 10.0 mi SW 4.6 mph - N/A   Mostly Cloudy
3:55 AM 42.8 °F 40.1 °F 28.4 °F 57% 30.08 in 10.0 mi SSW 4.6 mph - N/A   Overcast
4:15 AM 42.8 °F 41.1 °F 28.4 °F 57% 30.07 in 10.0 mi South 3.5 mph - N/A   Overcast
4:35 AM 42.8 °F 39.3 °F 28.4 °F 57% 30.06 in 10.0 mi SW 5.8 mph - N/A   Overcast
4:55 AM 42.8 °F 41.1 °F 28.4 °F 57% 30.06 in 10.0 mi SSW 3.5 mph - N/A   Overcast
5:15 AM 42.8 °F 41.1 °F 28.4 °F 57% 30.04 in 10.0 mi SSW 3.5 mph - N/A   Overcast
5:35 AM 42.8 °F 38.6 °F 28.4 °F 57% 30.05 in 10.0 mi SW 6.9 mph - N/A   Overcast
5:55 AM 44.6 °F 42.2 °F 28.4 °F 53% 30.05 in 10.0 mi SW 4.6 mph - N/A   Overcast
6:15 AM 44.6 °F 42.2 °F 28.4 °F 53% 30.06 in 10.0 mi SW 4.6 mph - N/A   Overcast
6:35 AM 44.6 °F - 28.4 °F 53% 30.06 in 10.0 mi Calm Calm - N/A   Overcast
6:55 AM 44.6 °F - 28.4 °F 53% 30.04 in 10.0 mi Calm Calm - N/A   Overcast
7:15 AM 42.8 °F 41.1 °F 28.4 °F 57% 30.05 in 10.0 mi SSW 3.5 mph - N/A   Mostly Cloudy
7:35 AM 42.8 °F 41.1 °F 30.2 °F 61% 30.06 in 7.0 mi SSW 3.5 mph - N/A   Scattered Clouds
7:55 AM 42.8 °F 38.6 °F 30.2 °F 61% 30.05 in 10.0 mi SW 6.9 mph - N/A   Scattered Clouds
8:15 AM 44.6 °F 42.2 °F 32.0 °F 61% 30.06 in 10.0 mi SW 4.6 mph - N/A   Clear
8:35 AM 46.4 °F 44.3 °F 32.0 °F 57% 30.06 in 10.0 mi SSW 4.6 mph - N/A   Scattered Clouds
8:55 AM 50.0 °F - 32.0 °F 50% 30.05 in 10.0 mi SSW 5.8 mph - N/A   Mostly Cloudy
9:15 AM 50.0 °F - 33.8 °F 54% 30.03 in 10.0 mi SW 3.5 mph - N/A   Scattered Clouds
9:35 AM 51.8 °F - 33.8 °F 50% 30.03 in 10.0 mi SW 5.8 mph - N/A   Clear
9:55 AM 55.4 °F - 35.6 °F 47% 30.02 in 10.0 mi SW 5.8 mph - N/A   Clear
10:15 AM 57.2 °F - 37.4 °F 48% 30.01 in 10.0 mi SSW 9.2 mph - N/A   Clear
10:35 AM 57.2 °F - 37.4 °F 48% 29.99 in 10.0 mi South 8.1 mph 16.1 mph N/A   Mostly Cloudy
10:55 AM 59.0 °F - 39.2 °F 48% 29.98 in 10.0 mi South 9.2 mph - N/A   Overcast
11:15 AM 60.8 °F - 41.0 °F 48% 29.98 in 10.0 mi South 8.1 mph - N/A   Overcast
11:35 AM 60.8 °F - 41.0 °F 48% 29.97 in 10.0 mi SSW 9.2 mph - N/A   Overcast
11:50 AM 59.0 °F - 41.0 °F 51% 29.96 in 10.0 mi South 4.6 mph - N/A   Overcast
12:15 PM 60.8 °F - 41.0 °F 48% 29.95 in 10.0 mi West 5.8 mph - N/A   Overcast
12:35 PM 60.8 °F - 41.0 °F 48% 29.94 in 10.0 mi West 3.5 mph - N/A   Overcast
12:55 PM 55.4 °F - 35.6 °F 47% 29.94 in 10.0 mi NNE 16.1 mph 26.5 mph N/A   Overcast
1:15 PM 46.4 °F 39.5 °F 32.0 °F 57% 29.95 in 10.0 mi NNE 17.3 mph 21.9 mph N/A   Overcast
1:35 PM 44.6 °F 36.1 °F 30.2 °F 57% 29.95 in 10.0 mi NNE 21.9 mph 26.5 mph N/A   Overcast
1:55 PM 42.8 °F 34.0 °F 32.0 °F 66% 29.97 in 10.0 mi NNE 20.7 mph 28.8 mph N/A Rain Rain
2:15 PM 41.0 °F 33.5 °F 35.6 °F 81% 30.01 in 5.0 mi North 13.8 mph 21.9 mph 0.02 in Rain Rain
2:35 PM 37.4 °F 31.4 °F 35.6 °F 93% 30.02 in 4.0 mi NNE 8.1 mph - 0.05 in Rain Rain
2:55 PM 37.4 °F 32.8 °F 37.4 °F 100% 30.01 in 2.5 mi NNE 5.8 mph - 0.10 in Rain Rain
3:15 PM 37.4 °F 33.8 °F 37.4 °F 100% 30.01 in 5.0 mi NNE 4.6 mph - 0.01 in Rain Light Rain
3:35 PM 37.4 °F 34.9 °F 37.4 °F 100% 30.01 in 5.0 mi NNE 3.5 mph - 0.02 in Rain Light Rain
3:55 PM 37.4 °F - 37.4 °F 100% 30.00 in 4.0 mi Calm Calm - 0.03 in Rain Light Rain
4:15 PM 37.4 °F 34.9 °F 37.4 °F 100% 30.00 in 3.0 mi NNW 3.5 mph - 0.01 in Rain Light Rain
4:35 PM 37.4 °F - 37.4 °F 100% 29.99 in 3.0 mi Calm Calm - 0.01 in Rain Rain
4:55 PM 37.4 °F - 37.4 °F 100% 29.98 in 3.0 mi Calm Calm - 0.01 in   Drizzle
5:15 PM 37.4 °F - 37.4 °F 100% 29.98 in 3.0 mi Calm Calm - N/A   Overcast
5:35 PM 37.4 °F - 37.4 °F 100% 29.98 in 3.0 mi Calm Calm - N/A   Overcast
5:55 PM 37.4 °F 34.9 °F 37.4 °F 100% 29.98 in 2.5 mi ENE 3.5 mph - N/A   Overcast
6:10 PM 37.4 °F 33.8 °F 37.4 °F 100% 29.98 in 3.0 mi NNE 4.6 mph - N/A   Overcast
6:35 PM 37.4 °F 34.9 °F 37.4 °F 100% 29.99 in 3.0 mi NNE 3.5 mph - N/A   Overcast
6:55 PM 37.4 °F 34.9 °F 37.4 °F 100% 29.99 in 4.0 mi NE 3.5 mph - N/A   Light Drizzle
7:15 PM 37.4 °F 32.8 °F 37.4 °F 100% 29.98 in 4.0 mi NE 5.8 mph - N/A   Light Drizzle
7:35 PM 37.4 °F 31.4 °F 37.4 °F 100% 29.98 in 4.0 mi NNE 8.1 mph - N/A   Overcast
7:55 PM 37.4 °F 31.4 °F 37.4 °F 100% 29.98 in 4.0 mi NNE 8.1 mph - N/A   Light Drizzle
8:15 PM 37.4 °F 30.8 °F 37.4 °F 100% 29.98 in 3.0 mi NNE 9.2 mph - N/A   Drizzle
8:35 PM 37.4 °F 30.8 °F 37.4 °F 100% 29.99 in 2.0 mi NNE 9.2 mph - N/A Rain Light Rain
8:55 PM 37.4 °F 30.8 °F 37.4 °F 100% 29.99 in 2.0 mi NNE 9.2 mph - N/A Rain Rain
9:15 PM 35.6 °F 28.0 °F 35.6 °F 100% 29.98 in 2.5 mi NNE 10.4 mph - N/A   Light Drizzle
9:35 PM 35.6 °F 28.0 °F 35.6 °F 100% 29.98 in 2.5 mi NNE 10.4 mph - N/A   Light Drizzle
9:55 PM 35.6 °F 27.5 °F 35.6 °F 100% 29.98 in 3.0 mi NNE 11.5 mph - N/A   Overcast
10:15 PM 35.6 °F 27.5 °F 35.6 °F 100% 29.98 in 1.8 mi NNE 11.5 mph - N/A Rain Heavy Rain
10:35 PM 35.6 °F 28.0 °F 35.6 °F 100% 29.98 in 1.5 mi NNE 10.4 mph 16.1 mph 0.02 in Rain Rain
10:55 PM 35.6 °F 27.5 °F 35.6 °F 100% 29.98 in 3.0 mi NNE 11.5 mph - 0.05 in Rain Rain
11:15 PM 35.6 °F 28.0 °F 35.6 °F 100% 29.98 in 3.0 mi NE 10.4 mph - 0.01 in Rain Rain
11:35 PM 35.6 °F 28.6 °F 35.6 °F 100% 29.96 in 3.0 mi NNE 9.2 mph - 0.04 in Rain Rain
11:55 PM 33.8 °F 25.3 °F 33.8 °F 100% 29.95 in 4.0 mi North 11.5 mph - 0.06 in Rain Light Rain